Miscellaneous Local Product
Issued by NWS Hastings, NE

Home | Current Version | Previous Version | Graphics & Text | Print | Product List | Glossary On
Versions: 1 2 3 4 5 6 7 8 9 10 11 12 13 14 15 16 17 18 19 20 21 22 23 24 25 26 27 28 29 30 31 32 33 34 35 36 37 38 39 40 41 42 43 44 45 46 47 48 49 50
000
AXUS43 KGID 100602
MISGRI

GID CWA HOURLY WEATHER ROUNDUP
NATIONAL WEATHER SERVICE HASTINGS NE
1200 AM CST SUN DEC 10 2017

NOTE: "FAIR" INDICATES FEW OR NO CLOUDS BELOW 12,000 FEET WITH NO
SIGNIFICANT WEATHER AND/OR OBSTRUCTIONS TO VISIBILITY.

...SOUTH CENTRAL NEBRASKA...

CITY           SKY/WX    TMP DP  RH WIND       PRES   REMARKS
GRAND ISLAND   CLEAR     38  18  44 W16       30.10R WCI  29
KEARNEY        CLEAR     41  13  31 W10       30.14R
HASTINGS       CLEAR     37  15  40 W16       30.11S WCI  28
ORD            CLEAR     44  18  35 NW17      30.08R
AURORA         CLEAR     33  18  54 W13       30.08S WCI  24
LEXINGTON      CLEAR     34  16  47 NW13      30.17S WCI  25
HOLDREGE       CLEAR     40  17  39 NW10      30.16S WCI  33
HEBRON         PTCLDY    35  20  55 W5        30.11R WCI  31

...NEBRASKA PANHANDLE...

CITY           SKY/WX    TMP DP  RH WIND       PRES   REMARKS
CHADRON        CLEAR     39  13  34 W17G24    30.27R WCI  30
ALLIANCE       CLEAR     31  12  45 W16       30.27S WCI  20
SCOTTSBLUFF    CLOUDY    29  12  49 NW10      30.34R WCI  20
SIDNEY         CLEAR     36   9  32 W15       30.34R WCI  27

...WESTERN AND NORTH CENTRAL NEBRASKA...

CITY           SKY/WX    TMP DP  RH WIND       PRES   REMARKS
VALENTINE      CLEAR     41  19  41 W14       30.13R
AINSWORTH      CLEAR     43  19  38 W21G26    30.10R
ONEILL         CLEAR     38  22  51 W7        30.05R WCI  33
BROKEN BOW     CLEAR     46  14  27 W21G28    30.12R
IMPERIAL       CLEAR     41  12  30 W15       30.27S
NORTH PLATTE   CLEAR     37  15  40 W12       30.21R WCI  29
MCCOOK         CLEAR     38  13  35 W15       30.23R WCI  29

...EASTERN NEBRASKA...

CITY           SKY/WX    TMP DP  RH WIND       PRES   REMARKS
NORFOLK        CLOUDY    35  21  56 W12       30.00S WCI  27
SO SIOUX CITY  CLOUDY    19  15  84 E3        29.98F
TEKAMAH        CLOUDY    26  17  68 SW10      30.00F WCI  16
COLUMBUS       CLOUDY    31  22  69 W8        30.04F WCI  23
ALBION         CLEAR     42  21  42 NW14G20   30.04S
OMAHA EPPLEY   CLOUDY    25  18  74 SE10      30.03F WCI  15
OFFUTT AFB     CLOUDY    19  14  84 CALM      30.03F
MILLARD        CLOUDY    27  21  79 CALM      30.03F
LINCOLN        CLOUDY    31  20  63 SW5       30.07S WCI  26
NEBRASKA CITY  CLOUDY    30  22  72 SW14      30.05F WCI  19
BEATRICE       CLOUDY    34  23  65 SW9       30.07F WCI  27
FALLS CITY     CLOUDY    24  17  74 S6        30.08F WCI  17

...NORTHERN KANSAS...

CITY           SKY/WX    TMP DP  RH WIND       PRES   REMARKS
GOODLAND       CLEAR     35   7  31 W17       30.31R WCI  25
HILL CITY      CLEAR     36  13  38 W8        30.23S WCI  30
NORTON         CLEAR     39   7  26 W20       30.20R WCI  30
PHILLIPSBURG   CLEAR     34  12  40 W7        30.20R WCI  28
SMITH CENTER   CLEAR     27  16  63 W8        30.18S WCI  18
HAYS           CLEAR     34  13  41 W9        30.23R WCI  27
RUSSELL        CLEAR     32  18  56 W10       30.19S WCI  24
CONCORDIA      CLOUDY    40  20  44 W15       30.13F WCI  32
SALINA         CLOUDY    31  21  66 S9        30.19F WCI  23
TOPEKA         CLOUDY    27  19  72 S3        30.16F



USA.gov is the U.S. government's official web portal to all federal, state and local government web resources and services.